Location: Asheville, NC
(35.6000°N, 82.5500°W)
Time: 07:05:04
(UTC-05:00)

Vanguard 3 - Pass Details

Date: 15 February 2018
Orbit: 508 x 3264 km, 33.3° (Epoch: 19 February)

Event Time Altitude Azimuth Distance (km) Brightness Sun altitude
Rises 16:52:18 0° 233° (SW) 2,883 11.8 14.3°
Reaches altitude 10° 16:54:58 10° 222° (SW) 1,812 10.6 13.8°
Maximum altitude 16:58:20 28° 161° (SSE) 958 7.8 13.2°
Drops below altitude 10° 17:01:35 10° 99° (E) 1,742 8.4 12.6°
Sets 17:04:04 0° 87° (E) 2,747 9.3 12.2°
